TimeCST,TemperatureF,Dew PointF,Humidity,Sea Level PressureIn,VisibilityMPH,Wind Direction,Wind SpeedMPH,Gust SpeedMPH,PrecipitationIn,Events,Conditions,WindDirDegrees,DateUTC
12:55 AM,46.8,37.2,69,30.06,7.0,Calm,Calm,-,N/A,,Clear,0,2012-11-05 06:55:00
1:26 AM,48.2,37.4,66,30.06,2.5,Calm,Calm,-,N/A,,Haze,0,2012-11-05 07:26:00
1:31 AM,48.2,37.4,66,30.06,3.0,Calm,Calm,-,N/A,,Haze,0,2012-11-05 07:31:00
1:55 AM,47.8,37.0,66,30.05,4.0,Calm,Calm,-,N/A,,Haze,0,2012-11-05 07:55:00
2:55 AM,53.1,37.6,56,30.05,10.0,Calm,Calm,-,N/A,,Overcast,0,2012-11-05 08:55:00
3:55 AM,49.5,39.9,70,30.05,5.0,North,3.5,-,N/A,,Haze,350,2012-11-05 09:55:00
4:55 AM,50.7,41.4,70,30.05,10.0,Calm,Calm,-,N/A,,Overcast,0,2012-11-05 10:55:00
5:55 AM,51.8,40.1,64,30.07,10.0,NNW,4.6,-,N/A,,Mostly Cloudy,330,2012-11-05 11:55:00
6:55 AM,54.7,40.1,58,30.07,10.0,North,10.4,-,N/A,,Overcast,350,2012-11-05 12:55:00
7:55 AM,59.5,38.7,46,30.09,10.0,North,9.2,-,N/A,,Overcast,350,2012-11-05 13:55:00
8:55 AM,62.8,38.3,40,30.11,10.0,North,12.7,-,N/A,,Scattered Clouds,360,2012-11-05 14:55:00
9:55 AM,64.8,39.2,39,30.12,10.0,North,13.8,-,N/A,,Mostly Cloudy,360,2012-11-05 15:55:00
10:55 AM,67.6,39.2,35,30.11,10.0,North,16.1,-,N/A,,Scattered Clouds,10,2012-11-05 16:55:00
11:55 AM,70.2,34.0,26,30.10,10.0,North,23.0,32.2,N/A,,Partly Cloudy,360,2012-11-05 17:55:00
12:55 PM,70.3,33.1,25,30.07,10.0,NNW,18.4,25.3,N/A,,Clear,330,2012-11-05 18:55:00
1:55 PM,70.0,33.6,26,30.06,10.0,North,19.6,31.1,N/A,,Clear,350,2012-11-05 19:55:00
2:55 PM,69.8,33.3,26,30.05,10.0,North,25.3,31.1,N/A,,Clear,350,2012-11-05 20:55:00
3:55 PM,68.9,32.4,26,30.06,10.0,North,21.9,29.9,N/A,,Clear,350,2012-11-05 21:55:00
4:55 PM,66.6,30.9,26,30.05,10.0,North,13.8,24.2,N/A,,Clear,360,2012-11-05 22:55:00
5:55 PM,61.2,31.1,32,30.07,10.0,North,8.1,-,N/A,,Clear,360,2012-11-05 23:55:00
6:55 PM,54.3,32.5,44,30.09,10.0,NNE,6.9,-,N/A,,Clear,20,2012-11-06 00:55:00
7:55 PM,53.4,36.5,53,30.09,10.0,NNE,6.9,-,N/A,,Clear,30,2012-11-06 01:55:00
8:55 PM,49.6,37.0,62,30.11,10.0,Calm,Calm,-,N/A,,Clear,0,2012-11-06 02:55:00
9:55 PM,49.5,37.0,62,30.12,10.0,Calm,Calm,-,N/A,,Clear,0,2012-11-06 03:55:00
10:55 PM,47.5,37.2,68,30.10,10.0,NNE,3.5,-,N/A,,Clear,30,2012-11-06 04:55:00
11:55 PM,44.8,36.9,74,30.11,10.0,Calm,Calm,-,N/A,,Clear,0,2012-11-06 05:55:00